Location: Most
(50.5133°N, 13.6207°E)
Time: 18:41:30
(UTC+02:00)

ISS - Pass Details

Date: 17 May 2019
Orbit: 407 x 410 km, 51.6° (Epoch: 23 May)

Event Time Altitude Azimuth Distance (km) Brightness Sun altitude
Exits shadow 00:39:33 40° 79° (ENE) 618 -2.9 -20.1°
Drops below altitude 10° 00:41:48 10° 77° (ENE) 1,478 -0.9 -20.1°
Sets 00:43:53 0° 76° (ENE) 2,341 0.2 -20.2°
